Volver al catálogo

ION SCV-019

ActivoCienciaSSO
NORAD 68435·PAYLOAD·🇮🇹 Italy

Lanzado Mar 30, 2026 desde Vandenberg Space Force Base

Loading…

Próximos Pases (próximas 24 horas)

TLE

ActualizadoSource: Space-Track

Época: Sep 14, 2026, 14:19 UTC

1 68435U 26067V   26257.59677996  .00003351  00000-0  15766-3 0  9997
2 68435  97.4649 215.0820 0011446  88.6262 271.6284 15.20201422 25526

Sigue ION SCV-019 en tiempo real con AllMySat

Download on the App Store